Total_Precipitation_Accumulation
0.40 0.40 0.37 0.34 0.30 0.27 0.25 0.23 0.20 0.16 0.13 0.12 0.11 0.10 0.10 0.10 0.10 0.12 0.12 0.11 0.11 0.10 0.10 0.10 0.11 0.11 0.13 0.13 0.16 0.20 0.25 0.32 0.34 0.16 0.11 0.16 0.25 0.29 0.34 0.34 0.31 0.29 0.25
0.34 0.31 0.28 0.25 0.22 0.20 0.18 0.16 0.15 0.14 0.14 0.13 0.13 0.13 0.12 0.11 0.10 0.11 0.11 0.10 0.10 0.10 0.10 0.10 0.10 0.10 0.12 0.13 0.16 0.19 0.22 0.28 0.36 0.29 0.19 0.21 0.28 0.37 0.45 0.46 0.40 0.35 0.32
0.19 0.17 0.18 0.18 0.17 0.17 0.16 0.15 0.15 0.14 0.14 0.14 0.13 0.13 0.11 0.10 0.10 0.11 0.10 0.09 0.09 0.09 0.10 0.11 0.11 0.12 0.14 0.17 0.21 0.23 0.25 0.28 0.39 0.46 0.36 0.30 0.34 0.43 0.56 0.55 0.46 0.46 0.36
0.13 0.11 0.11 0.13 0.14 0.15 0.14 0.14 0.13 0.13 0.13 0.12 0.09 0.08 0.09 0.09 0.07 0.06 0.05 0.05 0.06 0.06 0.08 0.11 0.13 0.16 0.20 0.24 0.24 0.27 0.34 0.39 0.41 0.45 0.42 0.39 0.42 0.48 0.62 0.68 0.56 0.47 0.38
0.12 0.12 0.13 0.13 0.13 0.13 0.13 0.13 0.13 0.12 0.10 0.09 0.07 0.07 0.08 0.07 0.03 0.02 0.02 0.02 0.04 0.06 0.08 0.11 0.12 0.16 0.21 0.25 0.27 0.34 0.45 0.52 0.49 0.48 0.46 0.45 0.48 0.57 0.62 0.63 0.58 0.46 0.33
0.20 0.19 0.17 0.15 0.14 0.14 0.14 0.13 0.12 0.10 0.09 0.07 0.05 0.05 0.05 0.03 0.01 0.01 0.00 0.01 0.04 0.08 0.13 0.12 0.09 0.09 0.12 0.17 0.25 0.33 0.42 0.51 0.57 0.61 0.59 0.52 0.48 0.54 0.59 0.63 0.61 0.56 0.42
0.24 0.21 0.17 0.14 0.13 0.13 0.11 0.10 0.09 0.07 0.06 0.05 0.04 0.03 0.04 0.03 0.00 0.00 0.00 0.01 0.06 0.12 0.15 0.13 0.09 0.08 0.13 0.19 0.21 0.24 0.30 0.42 0.59 0.72 0.71 0.57 0.57 0.64 0.73 0.75 0.62 0.60 0.56
0.20 0.17 0.14 0.11 0.10 0.09 0.08 0.07 0.05 0.04 0.04 0.04 0.04 0.04 0.06 0.03 0.00 0.00 0.00 0.02 0.07 0.10 0.12 0.12 0.14 0.16 0.17 0.16 0.18 0.25 0.37 0.48 0.55 0.58 0.67 0.66 0.69 0.68 0.65 0.64 0.58 0.59 0.50
0.14 0.12 0.11 0.09 0.07 0.05 0.04 0.04 0.05 0.05 0.04 0.04 0.03 0.04 0.06 0.05 0.01 0.00 0.00 0.02 0.04 0.06 0.07 0.10 0.13 0.18 0.16 0.21 0.29 0.42 0.60 0.77 0.73 0.69 0.73 0.84 0.87 0.74 0.56 0.53 0.63 0.67 0.52
0.10 0.08 0.06 0.04 0.04 0.04 0.04 0.05 0.05 0.05 0.04 0.03 0.03 0.04 0.06 0.07 0.02 0.00 0.00 0.02 0.04 0.04 0.06 0.11 0.16 0.20 0.20 0.32 0.41 0.58 0.80 0.94 0.82 0.74 0.81 0.93 0.88 0.79 0.74 0.71 0.72 0.67 0.56
0.04 0.03 0.02 0.02 0.02 0.02 0.04 0.05 0.05 0.05 0.05 0.04 0.05 0.05 0.06 0.05 0.03 0.00 0.01 0.02 0.04 0.06 0.11 0.18 0.25 0.28 0.27 0.39 0.56 0.72 0.96 1.00 0.87 0.76 0.71 0.71 0.70 0.67 0.65 0.69 0.63 0.57 0.53
0.02 0.02 0.02 0.02 0.01 0.01 0.04 0.06 0.06 0.05 0.05 0.05 0.05 0.05 0.05 0.06 0.04 0.01 0.00 0.01 0.03 0.09 0.21 0.31 0.33 0.32 0.35 0.52 0.67 0.86 1.11 1.19 0.96 0.74 0.58 0.52 0.51 0.55 0.56 0.50 0.45 0.42 0.42
0.02 0.03 0.03 0.02 0.02 0.02 0.03 0.05 0.05 0.05 0.05 0.05 0.05 0.05 0.05 0.06 0.05 0.01 0.01 0.02 0.04 0.11 0.25 0.40 0.41 0.37 0.54 0.80 0.98 1.10 1.26 1.24 0.97 0.70 0.56 0.48 0.43 0.42 0.43 0.43 0.40 0.36 0.35
0.05 0.04 0.04 0.05 0.05 0.04 0.05 0.04 0.04 0.05 0.05 0.05 0.06 0.06 0.06 0.07 0.06 0.04 0.04 0.06 0.08 0.12 0.21 0.37 0.49 0.55 0.72 0.99 1.18 1.28 1.30 1.19 0.95 0.72 0.58 0.50 0.43 0.39 0.40 0.37 0.35 0.31 0.32
0.05 0.04 0.05 0.04 0.04 0.06 0.06 0.03 0.02 0.03 0.01 0.03 0.06 0.07 0.09 0.09 0.06 0.06 0.08 0.10 0.12 0.16 0.21 0.31 0.43 0.54 0.75 0.96 1.09 1.13 1.09 1.02 0.91 0.72 0.58 0.52 0.48 0.44 0.43 0.39 0.35 0.30 0.33
0.04 0.04 0.04 0.03 0.03 0.03 0.05 0.05 0.02 0.01 0.01 0.01 0.03 0.05 0.06 0.06 0.05 0.04 0.07 0.12 0.16 0.22 0.28 0.39 0.52 0.63 0.79 0.92 0.99 0.99 0.92 0.85 0.76 0.65 0.57 0.52 0.49 0.45 0.44 0.38 0.31 0.30 0.33
0.03 0.03 0.03 0.02 0.02 0.02 0.03 0.07 0.09 0.06 0.03 0.02 0.02 0.03 0.04 0.04 0.04 0.04 0.07 0.12 0.15 0.21 0.31 0.46 0.60 0.73 0.84 0.89 0.90 0.87 0.82 0.77 0.66 0.58 0.53 0.48 0.44 0.40 0.37 0.33 0.28 0.28 0.28
0.03 0.02 0.01 0.02 0.01 0.02 0.02 0.03 0.06 0.10 0.11 0.10 0.06 0.03 0.04 0.04 0.06 0.06 0.08 0.11 0.15 0.22 0.35 0.51 0.62 0.69 0.77 0.81 0.79 0.77 0.73 0.66 0.57 0.51 0.50 0.47 0.41 0.35 0.31 0.28 0.26 0.23 0.22
0.02 0.03 0.01 0.01 0.00 0.01 0.02 0.02 0.03 0.06 0.09 0.10 0.10 0.07 0.06 0.08 0.10 0.12 0.14 0.15 0.23 0.30 0.39 0.48 0.55 0.59 0.64 0.68 0.66 0.62 0.60 0.56 0.49 0.45 0.44 0.44 0.41 0.35 0.29 0.23 0.19 0.15 0.15
0.01 0.01 0.00 0.00 0.00 0.01 0.01 0.02 0.03 0.05 0.07 0.10 0.11 0.10 0.10 0.14 0.17 0.17 0.16 0.17 0.23 0.31 0.38 0.45 0.48 0.48 0.48 0.50 0.48 0.44 0.43 0.43 0.41 0.40 0.38 0.37 0.35 0.29 0.23 0.18 0.15 0.14 0.13
0.01 0.00 0.00 0.00 0.00 0.00 0.01 0.02 0.02 0.04 0.06 0.09 0.10 0.10 0.17 0.21 0.25 0.25 0.24 0.26 0.29 0.32 0.34 0.37 0.40 0.40 0.36 0.34 0.34 0.33 0.34 0.35 0.35 0.35 0.34 0.32 0.29 0.24 0.18 0.14 0.11 0.09 0.08
0.00 0.00 0.00 0.00 0.00 0.00 0.00 0.01 0.02 0.03 0.05 0.07 0.09 0.09 0.18 0.21 0.26 0.29 0.31 0.33 0.35 0.36 0.35 0.33 0.32 0.33 0.34 0.32 0.29 0.28 0.29 0.30 0.31 0.33 0.30 0.28 0.25 0.20 0.14 0.10 0.07 0.06 0.05
0.00 0.00 0.00 0.00 0.00 0.00 0.00 0.01 0.01 0.02 0.03 0.05 0.06 0.08 0.12 0.20 0.27 0.34 0.38 0.38 0.38 0.36 0.31 0.28 0.29 0.31 0.30 0.27 0.25 0.24 0.24 0.25 0.28 0.30 0.30 0.25 0.21 0.17 0.12 0.09 0.06 0.05 0.03
0.00 0.00 0.00 0.00 0.00 0.00 0.00 0.01 0.01 0.01 0.02 0.03 0.05 0.07 0.11 0.17 0.24 0.32 0.39 0.42 0.44 0.42 0.37 0.33 0.31 0.30 0.27 0.24 0.24 0.22 0.18 0.19 0.22 0.25 0.26 0.22 0.16 0.12 0.09 0.07 0.05 0.04 0.03
0.00 0.00 0.00 0.00 0.00 0.00 0.00 0.01 0.01 0.01 0.01 0.02 0.03 0.05 0.07 0.11 0.17 0.24 0.30 0.36 0.40 0.45 0.45 0.42 0.38 0.32 0.26 0.21 0.17 0.14 0.16 0.19 0.17 0.17 0.22 0.19 0.12 0.08 0.07 0.06 0.05 0.04 0.04
0.00 0.00 0.00 0.00 0.00 0.00 0.00 0.00 0.00 0.00 0.01 0.01 0.01 0.03 0.05 0.08 0.12 0.16 0.19 0.22 0.26 0.33 0.39 0.44 0.43 0.33 0.24 0.19 0.17 0.16 0.15 0.10 0.07 0.07 0.16 0.17 0.11 0.08 0.07 0.06 0.05 0.04 0.04